Rome, NY

2:52 AM EDT on April 21, 2018 (GMT -0400)
Griffiss

Weather History for KRME - November, 2012

Change the Weather History Date:

Tuesday, November 27, 2012

  Actual Average Record
Temperature  
Mean Temperature 31 °F -  
Max Temperature 36 °F 44 °F 66 °F (1988)
Min Temperature 26 °F 30 °F 17 °F (1996)
Degree Days  
Heating Degree Days 34    
Moisture  
Dew Point 25 °F    
Average Humidity 80    
Maximum Humidity 96    
Minimum Humidity 59    
Precipitation  
Precipitation 0.00 in - - ()
Sea Level Pressure  
Sea Level Pressure 30.28 in    
Wind  
Wind Speed 2 mph (NNW)    
Max Wind Speed 9 mph    
Max Gust Speed -    
Visibility 10 miles    
Events      
Averages and records for this station are not official NWS values.
T = Trace of Precipitation, MM = Missing Value Source: NWS Daily Summary

Daily Weather History Graph

Daily Weather History Graph

Search for Another Location

Airport or City:

Astronomy

Nov. 27, 2012 Rise Set
Actual Time 7:09 AM EST 4:28 PM EST
Civil Twilight 6:38 AM EST 5:00 PM EST
Nautical Twilight 6:02 AM EST 5:35 PM EST
Astronomical Twilight 5:28 AM EST 6:09 PM EST
Moon 3:59 PM EST (11/27) 6:12 AM EST (11/27)
Length of Visible Light 10h 22m
Length of Day
9h 18m
Waxing Gibbous, 99% of the Moon is Illuminated
Nov 27
Waxing Gibbous
Nov 28
Full
Dec 6
Last Quarter
Dec 13
New
Dec 20
First Quarter

Hourly Weather History & Observations

Time (EST) Temp. Windchill Dew Point Humidity Pressure Visibility Wind Dir Wind Speed Gust Speed Precip Events Conditions
12:53 AM 30.0 °F 25.2 °F 28.0 °F 92% 30.24 in 9.0 mi East 4.6 mph - N/A   Overcast
1:53 AM 30.0 °F 26.5 °F 27.0 °F 88% 30.25 in 10.0 mi East 3.5 mph - N/A   Overcast
2:53 AM 27.0 °F - 26.1 °F 96% 30.26 in 8.0 mi Calm Calm - N/A   Mostly Cloudy
3:53 AM 26.1 °F - 24.1 °F 92% 30.25 in 7.0 mi Calm Calm - N/A   Clear
4:53 AM 26.1 °F 20.5 °F 24.1 °F 92% 30.26 in 9.0 mi SE 4.6 mph - N/A   Clear
5:53 AM 27.0 °F - 24.1 °F 89% 30.25 in 10.0 mi Calm Calm - N/A   Clear
6:53 AM 26.1 °F - 24.1 °F 92% 30.26 in 9.0 mi Calm Calm - N/A   Clear
7:53 AM 26.1 °F - 24.1 °F 92% 30.28 in 9.0 mi Calm Calm - N/A   Scattered Clouds
8:53 AM 28.0 °F - 25.0 °F 88% 30.30 in 10.0 mi Calm Calm - N/A   Partly Cloudy
9:53 AM 32.0 °F - 25.0 °F 75% 30.31 in 10.0 mi Calm Calm - N/A   Overcast
10:53 AM 34.0 °F 31.0 °F 23.0 °F 64% 30.31 in 10.0 mi North 3.5 mph - N/A   Clear
11:53 AM 36.0 °F 31.1 °F 23.0 °F 59% 30.29 in 10.0 mi WNW 5.8 mph - N/A   Clear
12:53 PM 35.1 °F 31.0 °F 24.1 °F 64% 30.28 in 10.0 mi WNW 4.6 mph - N/A   Scattered Clouds
1:53 PM 36.0 °F 29.0 °F 26.1 °F 67% 30.27 in 10.0 mi NW 9.2 mph - N/A   Overcast
2:53 PM 35.1 °F 30.1 °F 26.1 °F 70% 30.25 in 10.0 mi NW 5.8 mph - N/A   Overcast
3:53 PM 35.1 °F 30.1 °F 25.0 °F 67% 30.27 in 10.0 mi WNW 5.8 mph - N/A   Overcast
4:53 PM 34.0 °F - 25.0 °F 70% 30.28 in 10.0 mi Calm Calm - N/A   Overcast
5:53 PM 33.1 °F - 25.0 °F 72% 30.29 in 9.0 mi Calm Calm - N/A   Overcast
6:53 PM 32.0 °F - 26.1 °F 79% 30.29 in 10.0 mi Calm Calm - N/A   Overcast
7:53 PM 30.9 °F - 26.1 °F 82% 30.30 in 10.0 mi Calm Calm - N/A   Overcast
8:53 PM 30.9 °F - 26.1 °F 82% 30.29 in 10.0 mi Calm Calm - N/A   Overcast
9:53 PM 30.9 °F - 26.1 °F 82% 30.29 in 10.0 mi Calm Calm - N/A   Overcast
10:53 PM 30.9 °F - 26.1 °F 82% 30.28 in 10.0 mi Calm Calm - N/A   Overcast
11:53 PM 30.9 °F - 26.1 °F 82% 30.27 in 10.0 mi Calm Calm - N/A   Overcast